GW4922 Weather Reports


time (UTC)temp
C
wind
direction
speed
KPH
gust
KPH
rain 1hr
cm
rain 24hr
cm
rain mn
cm
humidity
%
barometer
mb
20260502163129 19 18 6.4 14.5 0.00 0.00 0.00 62 1020.8
20260502162626 19 27 6.4 14.5 0.00 0.00 0.00 63 1021.1
20260502162123 19 17 12.9 17.7 0.00 0.00 0.00 64 1020.7
20260502161620 19 30 14.5 17.7 0.00 0.00 0.00 65 1020.7
20260502161117 19 26 8.0 22.5 0.00 0.00 0.00 64 1020.6
20260502160615 19 40 9.7 17.7 0.00 0.00 0.00 62 1020.8
20260502160114 19 27 11.3 17.7 0.00 0.00 0.00 64 1020.8
20260502152028 18 37 12.9 14.5 0.00 0.00 0.00 71 1020.3
20260502151525 17 359 11.3 14.5 0.00 0.00 0.00 75 1020.3
20260502151022 17 359 11.3 14.5 0.00 0.00 0.00 75 1020.3
20260502150520 17 64 16.1 20.9 0.00 0.00 0.00 74 1020.2
20260502130404 13 334 4.8 6.4 0.00 0.00 0.00 89 1019.4
20260502123347 12 320 6.4 11.3 0.00 0.00 0.00 91 1019.0
20260502122844 12 320 6.4 11.3 0.00 0.00 0.00 91 1018.9
20260502122339 12 320 6.4 11.3 0.00 0.00 0.00 91 1018.9
20260502121839 12 320 6.4 11.3 0.00 0.00 0.00 91 1018.5
20260502121335 12 320 6.4 11.3 0.00 0.00 0.00 91 1018.8
20260502120833 12 320 6.4 11.3 0.00 0.00 0.00 91 1018.5
20260502120329 12 304 6.4 6.4 0.00 0.00 0.00 92 1018.5
20260502115826 12 304 6.4 6.4 0.00 0.00 0.00 92 1018.4
20260502115323 12 304 6.4 6.4 0.00 0.00 0.00 92 1018.4
20260502114820 12 304 6.4 6.4 0.00 0.00 0.00 92 1018.3
20260502114316 12 304 6.4 6.4 0.00 0.00 0.00 92 1018.3
20260502113814 12 304 6.4 6.4 0.00 0.00 0.00 92 1018.1
20260502113311 12 304 6.4 6.4 0.00 0.00 0.00 92 1018.0
20260502112809 12 304 6.4 6.4 0.00 0.00 0.00 92 1017.8
20260502112306 12 304 6.4 6.4 0.00 0.00 0.00 92 1017.8
20260502111803 12 304 6.4 6.4 0.00 0.00 0.00 92 1017.7
20260502111301 12 262 3.2 6.4 0.00 0.00 0.00 92 1017.6
20260502110758 12 330 8.0 11.3 0.00 0.00 0.00 92 1017.6
20260502110256 12 312 8.0 9.7 0.00 0.00 0.00 92 1017.6
20260502105754 12 309 6.4 11.3 0.00 0.00 0.00 93 1017.5
20260502105249 12 312 6.4 6.4 0.00 0.00 0.00 93 1017.5
20260502104748 12 321 3.2 6.4 0.00 0.00 0.00 94 1017.5
20260502104245 12 340 9.7 11.3 0.00 0.00 0.00 94 1017.1
20260502103742 12 39 4.8 6.4 0.00 0.00 0.00 94 1017.0
20260502103240 12 323 4.8 6.4 0.00 0.00 0.00 95 1017.1
20260502102737 12 76 4.8 9.7 0.00 0.00 0.00 95 1017.0
20260502102233 12 333 6.4 9.7 0.00 0.00 0.00 95 1017.1
20260502101732 12 11 9.7 12.9 0.00 0.00 0.00 95 1017.2
20260502101230 13 11 3.2 4.8 0.00 0.00 0.00 96 1017.4
20260502100727 13 317 3.2 4.8 0.00 0.00 0.00 96 1017.4
20260502100226 13 345 6.4 6.4 0.00 0.00 0.00 96 1017.3
20260502091159 13 354 9.7 16.1 0.00 0.00 0.00 97 1016.1
20260502090657 13 26 8.0 11.3 0.00 0.00 0.00 97 1016.3
20260502090154 13 37 6.4 11.3 0.00 0.00 0.00 97 1015.9
20260502071055 13 25 9.7 14.5 0.00 0.00 0.00 97 1015.9
20260502070553 13 29 6.4 17.7 0.00 0.00 0.00 97 1015.8
20260502070051 13 345 9.7 17.7 0.00 0.00 0.00 97 1015.9
20260502065549 13 345 14.5 17.7 0.00 0.00 0.00 97 1016.0
20260502065046 13 221 4.8 12.9 0.00 0.00 0.00 98 1016.0
20260502064545 13 345 9.7 12.9 0.00 0.00 0.00 97 1015.9
20260502064041 13 18 14.5 22.5 0.00 0.00 0.00 97 1016.0
20260502063539 13 9 14.5 22.5 0.00 0.00 0.00 97 1015.8
20260502063037 13 347 9.7 16.1 0.00 0.00 0.00 97 1015.8
20260502062534 13 357 12.9 20.9 0.00 0.00 0.00 97 1015.9
20260502062032 13 5 11.3 16.1 0.00 0.00 0.00 98 1015.8
20260502061530 13 0 12.9 16.1 0.00 0.00 0.00 98 1015.7
20260502061026 13 29 8.0 14.5 0.00 0.00 0.00 98 1015.7
20260502060521 13 357 14.5 17.7 0.00 0.00 0.00 98 1015.4
20260502060019 13 9 4.8 14.5 0.00 0.00 0.00 98 1015.4
20260502055516 13 6 12.9 16.1 0.00 0.00 0.00 98 1015.2
20260502055015 13 16 14.5 24.1 0.00 0.00 0.00 98 1015.2
20260502054513 13 30 9.7 20.9 0.00 0.00 0.00 98 1015.2
20260502054010 13 342 14.5 22.5 0.00 0.00 0.00 98 1015.2
20260502053507 13 50 6.4 16.1 0.00 0.00 0.00 98 1015.1
20260502053005 13 353 14.5 22.5 0.00 0.00 0.00 98 1015.1
20260502052502 13 11 8.0 16.1 0.00 0.00 0.00 98 1015.3
20260502052001 13 350 11.3 14.5 0.00 0.00 0.00 98 1015.3
20260502051458 13 350 12.9 22.5 0.00 0.00 0.00 98 1015.3
20260502050955 13 16 14.5 17.7 0.00 0.00 0.00 98 1015.5
20260502050451 13 352 8.0 17.7 0.00 0.00 0.00 98 1015.4
20260502045949 13 345 6.4 20.9 0.00 5.74 5.74 98 1015.7
20260502045446 13 23 14.5 22.5 0.00 5.74 5.74 98 1015.2
20260502044943 13 357 6.4 14.5 0.00 5.74 5.74 98 1015.3
20260502044438 13 24 9.7 16.1 0.00 5.74 5.74 98 1015.3
20260502043936 13 9 4.8 22.5 0.00 5.74 5.74 98 1015.3
20260502043433 13 359 14.5 25.7 0.00 5.74 5.74 98 1015.1
20260502042932 13 340 9.7 14.5 0.00 5.74 5.74 98 1015.1
20260502042430 13 85 9.7 20.9 0.00 5.74 5.74 98 1015.0
20260502041927 13 343 11.3 16.1 0.00 5.74 5.74 98 1015.0
20260502041425 13 349 14.5 20.9 0.00 5.74 5.74 98 1015.0
20260502040921 13 342 12.9 22.5 0.00 5.74 5.74 98 1015.2
20260502040418 13 337 12.9 17.7 0.00 5.74 5.74 98 1014.9
20260502035914 13 17 6.4 12.9 0.00 5.74 5.74 98 1015.2
20260502035411 13 343 9.7 12.9 0.00 5.74 5.74 98 1015.1
20260502034909 13 358 9.7 16.1 0.00 5.74 5.74 98 1014.9
20260502034407 14 314 14.5 22.5 0.00 5.74 5.74 98 1014.8
20260502033905 14 314 9.7 20.9 0.00 5.74 5.74 98 1014.8
20260502033402 14 345 19.3 22.5 0.00 5.74 5.74 98 1014.6
20260502032859 15 351 16.1 29.0 0.00 5.74 5.74 98 1014.5
20260502032355 15 20 11.3 16.1 0.00 5.74 5.74 98 1014.4
20260502031853 15 6 6.4 11.3 0.00 5.74 5.74 98 1014.5
20260502031351 15 344 4.8 6.4 0.00 5.74 5.74 98 1014.3
20260502030849 14 309 4.8 9.7 0.00 5.74 5.74 98 1014.3
20260502030347 14 231 3.2 4.8 0.00 5.74 5.74 98 1014.4
20260502025844 14 5 4.8 12.9 0.00 5.74 5.74 98 1013.8
20260502025341 14 28 4.8 9.7 0.00 5.74 5.74 98 1013.6
20260502024839 14 23 6.4 16.1 0.00 5.74 5.74 98 1013.7
20260502024337 14 353 8.0 12.9 0.00 5.74 5.74 98 1013.6
20260502023834 14 330 14.5 20.9 0.18 5.74 5.74 98 1013.5
20260502023332 15 11 14.5 20.9 0.18 5.74 5.74 98 1013.4
20260502022830 15 56 4.8 4.8 0.00 5.71 5.71 98 1013.3
20260502022326 15 56 4.8 4.8 0.13 5.71 5.71 98 1012.9
20260502021823 15 56 4.8 4.8 0.13 5.71 5.71 98 1013.2
20260502021320 15 14 11.3 12.9 0.00 5.69 5.69 98 1013.0
20260502020817 15 14 11.3 12.9 0.00 5.69 5.69 98 1013.1
20260502020315 15 14 11.3 12.9 0.00 5.69 5.69 98 1013.1
20260502015812 15 14 11.3 12.9 0.30 5.69 5.69 98 1012.9
20260502015308 15 14 11.3 12.9 0.30 5.69 5.69 98 1013.3
20260502014806 15 13 8.0 14.5 0.00 5.64 5.64 98 1013.4
20260502014303 15 353 12.9 14.5 0.00 5.64 5.64 98 1013.2
20260502013759 15 320 9.7 14.5 0.18 5.64 5.64 98 1013.1
20260502013254 15 33 11.3 14.5 0.18 5.64 5.64 98 1013.0
20260502012751 15 61 6.4 6.4 0.00 5.61 5.61 98 1013.0
20260502012249 15 61 6.4 6.4 0.00 5.61 5.61 98 1012.8
20260502011746 15 61 6.4 14.5 0.00 5.61 5.61 98 1012.8
20260502011242 15 358 8.0 11.3 0.00 5.61 5.61 98 1012.6
20260502010740 15 340 14.5 20.9 0.18 5.61 5.61 98 1012.3
20260502010236 15 339 14.5 20.9 0.18 5.61 5.61 98 1012.2
20260502005733 15 345 12.9 14.5 0.00 5.59 5.59 98 1012.2
20260502005231 15 335 9.7 12.9 0.13 5.59 5.59 98 1012.0
20260502004727 15 7 8.0 20.9 0.13 5.59 5.59 98 1011.9
20260502004224 15 10 9.7 14.5 0.30 5.56 5.56 98 1012.0
20260502003722 15 341 9.7 11.3 0.30 5.56 5.56 98 1011.6
20260502003219 15 338 11.3 12.9 0.18 5.51 5.51 98 1011.2
20260502002714 15 338 11.3 12.9 0.30 5.51 5.51 98 1011.3
20260502002212 15 345 11.3 14.5 2.29 5.49 5.49 98 1011.1
20260502001709 15 18 14.5 17.7 2.16 5.46 5.46 98 1011.1
20260502001207 16 334 12.9 14.5 0.00 5.11 5.11 98 1011.0
20260502000704 16 334 12.9 14.5 2.11 5.11 5.11 98 1011.1
20260502000203 16 334 12.9 14.5 4.75 5.11 5.11 98 1011.8
20260501235658 16 303 14.5 16.1 2.64 4.75 4.75 98 1012.3
20260501235154 -17 0.0 0.0 0.00 0.00 0.00 1011.7
20260501234649 -17 0.0 0.0 0.00 0.00 0.00 1010.6
20260501234147 -17 0.0 0.0 0.00 0.00 0.00 1010.0
20260501233645 -17 0.0 0.0 0.00 0.00 0.00 1009.4
20260501233142 16 41 11.3 12.9 0.00 4.32 4.32 97 1009.2
20260501232638 16 41 11.3 12.9 0.00 4.32 4.32 97 1010.0
20260501232136 16 41 11.3 12.9 0.00 4.32 4.32 97 1009.6
20260501231633 16 41 11.3 12.9 0.00 4.32 4.32 97 1009.0
20260501231131 16 41 11.3 12.9 0.00 4.32 4.32 97 1009.5
20260501230629 16 41 11.3 12.9 0.00 4.32 4.32 97 1009.3
20260501230127 16 41 11.3 12.9 0.00 4.32 4.32 97 1008.8
20260501225624 16 41 11.3 12.9 0.00 4.32 4.32 97 1008.8
20260501225120 16 41 11.3 12.9 0.00 4.32 4.32 97 1009.3
20260501224618 16 41 11.3 12.9 0.00 4.32 4.32 97 1009.4
20260501224115 16 41 11.3 12.9 0.13 4.32 4.32 97 1009.5
20260501223611 16 41 11.3 12.9 0.13 4.32 4.32 97 1009.9
20260501223108 16 65 8.0 22.5 0.00 4.29 4.29 97 1009.7
20260501222604 16 5 9.7 24.1 0.00 4.29 4.29 97 1009.8
20260501222101 16 89 8.0 14.5 0.00 4.29 4.29 97 1009.8
20260501221558 16 9 6.4 17.7 0.18 4.29 4.29 97 1009.7
20260501221055 16 38 14.5 20.9 0.30 4.29 4.29 97 1009.9
20260501220553 17 24 14.5 16.1 0.13 4.27 4.27 97 1009.5
20260501220049 17 28 8.0 17.7 0.00 4.24 4.24 97 1009.6
20260501215545 17 28 14.5 20.9 0.00 4.24 4.24 97 1009.6
20260501215041 17 350 4.8 20.9 0.00 4.24 4.24 97 1010.0
20260501214536 17 344 11.3 17.7 0.00 4.24 4.24 97 1009.9
20260501214032 17 81 6.4 16.1 0.00 4.24 4.24 97 1009.9
20260501213530 17 351 6.4 17.7 0.00 4.24 4.24 97 1010.1
20260501213026 17 0 8.0 14.5 0.00 4.24 4.24 97 1010.0
20260501212522 17 32 6.4 11.3 0.00 4.24 4.24 97 1010.4
20260501212020 17 17 11.3 14.5 0.00 4.24 4.24 97 1010.0
20260501211516 17 317 6.4 12.9 0.00 4.24 4.24 97 1009.9
20260501211014 17 33 6.4 14.5 0.00 4.24 4.24 97 1009.5
20260501210510 17 10 12.9 14.5 3.96 4.24 4.24 97 1009.5
20260501210007 17 9 6.4 14.5 3.96 4.24 4.24 97 1009.6
20260501205503 17 31 11.3 14.5 2.87 3.58 3.58 97 1009.0
20260501205001 17 31 11.3 14.5 6.25 3.58 3.58 97 1007.7
20260501204456 17 74 8.0 11.3 5.99 3.10 3.10 97 1009.3
20260501203953 17 226 4.8 6.4 2.64 2.54 2.54 96 1011.5
20260501203450 17 14 4.8 6.4 0.13 2.11 2.11 96 1010.6
20260501202948 17 14 4.8 6.4 0.61 2.11 2.11 96 1009.4
20260501202444 17 337 8.0 11.3 0.30 2.06 2.06 96 1008.8
20260501201940 17 356 6.4 11.3 0.00 2.01 2.01 96 1008.6
20260501201437 17 31 8.0 11.3 0.00 2.01 2.01 96 1008.1
20260501200935 17 13 14.5 20.9 0.13 2.01 2.01 96 1007.8
20260501200432 17 49 8.0 17.7 0.13 2.01 2.01 96 1007.9
20260501195929 17 16 9.7 14.5 0.18 1.98 1.98 96 1007.7
20260501195426 17 34 8.0 16.1 0.61 1.98 1.98 96 1007.6
20260501194921 17 28 9.7 12.9 0.61 1.91 1.91 96 1008.5
20260501194417 17 20 8.0 11.3 2.34 1.88 1.88 96 1008.8
20260501193913 17 193 3.2 3.2 0.48 1.55 1.55 96 1009.6
20260501193412 17 238 1.6 3.2 0.30 1.50 1.50 96 1009.7
20260501192909 17 68 3.2 3.2 0.18 1.47 1.47 96 1009.4
20260501192406 17 94 3.2 4.8 0.13 1.45 1.45 96 1009.2
20260501191903 17 141 1.6 3.2 0.13 1.45 1.45 96 1009.4
20260501191400 17 147 1.6 4.8 1.68 1.42 1.42 95 1009.3
20260501190857 17 6 4.8 9.7 2.59 1.42 1.42 95 1009.0
20260501190353 17 68 8.0 12.9 0.89 1.14 1.14 95 1008.2
20260501185848 17 134 1.6 1.6 0.97 0.99 0.99 95 1008.4
20260501185344 17 79 3.2 4.8 0.97 0.99 0.99 95 1008.9
20260501184840 17 4 14.5 16.1 0.00 0.84 0.84 95 1008.4
20260501184337 17 33 12.9 20.9 0.00 0.84 0.84 95 1008.6
20260501183832 17 348 6.4 17.7 0.00 0.84 0.84 95 1008.4
20260501183330 17 355 11.3 14.5 0.00 0.84 0.84 95 1008.4
20260501182826 17 66 6.4 6.4 0.00 0.84 0.84 95 1009.1
20260501182323 17 14 12.9 20.9 0.00 0.84 0.84 95 1009.1
20260501181820 17 352 11.3 16.1 0.00 0.84 0.84 95 1009.1
20260501181317 17 96 4.8 17.7 0.13 0.84 0.84 94 1009.0
20260501180814 17 358 12.9 17.7 0.13 0.84 0.84 94 1009.3
20260501180310 17 1 16.1 24.1 0.00 0.81 0.81 94 1009.4
20260501175808 17 335 9.7 16.1 0.00 0.81 0.81 94 1009.5
20260501175306 17 12 8.0 17.7 0.00 0.81 0.81 94 1009.9
20260501174801 17 30 9.7 12.9 0.00 0.81 0.81 94 1009.9
20260501174258 17 38 6.4 16.1 0.00 0.81 0.81 94 1010.0
20260501173756 17 110 3.2 4.8 0.00 0.81 0.81 94 1009.9
20260501173253 17 136 3.2 9.7 0.30 0.81 0.81 94 1010.0
20260501172749 17 26 8.0 9.7 0.48 0.81 0.81 94 1010.3
20260501172244 17 77 6.4 11.3 0.48 0.76 0.76 94 1010.2
20260501171740 17 53 6.4 9.7 0.89 0.71 0.71 93 1010.2
20260501171237 17 32 4.8 12.9 1.50 0.69 0.69 93 1009.7
20260501170734 17 2 4.8 11.3 0.89 0.53 0.53 93 1010.3
20260501170231 17 10 11.3 17.7 0.48 0.43 0.43 93 1010.6
20260501165728 17 19 9.7 12.9 0.18 0.38 0.38 93 1010.7
20260501165226 17 359 8.0 11.3 0.00 0.36 0.36 93 1010.7
20260501164724 17 18 8.0 14.5 0.13 0.36 0.36 93 1010.8
20260501164220 17 21 6.4 12.9 1.07 0.36 0.36 93 1010.4
20260501163716 17 17 8.0 14.5 1.27 0.33 0.33 93 1010.9